Flag for Germany Weather past 2 weeks in Bühl, Baden-Württemberg, Germany

41 °F

Partly cloudy.

Feels Like: 39 °F
Forecast: 29 / 37 °F
Wind: 3 mph from Southeast

Location: Karlsruhe - Baden Wurttemberg

Current Time: Nov 26, 2015 at 6:08:54 PM

Latest Report: Nov 26, 2015 at 5:20 PM

Visibility: N/A

Pressure: 30.09 "Hg

Humidity: 93%

Dew point: 39 °F

Location of BühlLocation

Historic Weather in Bühl — Graph


Bühl temperature yesterday

Maximum temperature yesterday: 43 °F (at 1:20 PM)
Minimum temperature yesterday: 36 °F (at 3:50 AM)
Average temperature yesterday: 40 °F

Past Weeks' High & Low Weather Summary

High63 °F (Nov 18, 5:20 AM)100% (Nov 13, 4:50 AM)30.48 "Hg (Nov 13, 4:50 AM)
Low23 °F (Nov 24, 6:20 AM)44% (Nov 14, 1:50 PM)29.42 "Hg (Nov 21, 11:50 AM)
Average47 °F77%30.04 "Hg
* Reported Nov 11 4:20 PM — Nov 26 4:50 PM, Bühl, Weather by CustomWeather, © 2015

Note: Actual official high and low records may vary slightly from our data, if they occured in-between our weather recording intervals... More about our weather records


Bühl weather history for previous 24 hours

Time TempWeatherWind HumidityBarometerVisibility
4:50 PM
Thu, Nov 26
41 °FRain. Passing clouds.3 mph93%30.09 "Hg4 mi
4:20 PM41 °FLight rain. Partly sunny.2 mph93%30.07 "Hg4 mi
3:50 PM41 °FScattered showers. Partly sunny.2 mph93%30.07 "Hg5 mi
3:20 PM43 °FDrizzle. Broken clouds.2 mph87%30.07 "Hg4 mi
2:50 PM43 °FDrizzle. Partly sunny.5 mph87%30.04 "Hg4 mi
2:20 PM43 °FPartly sunny.6 mph93%30.04 "Hg5 mi
1:50 PM43 °FPartly sunny.5 mph87%30.04 "Hg6 mi
1:20 PM43 °FScattered clouds.3 mph87%30.04 "HgN/A
12:50 PM41 °FScattered clouds.5 mph93%30.04 "HgN/A
12:20 PM41 °FPartly sunny.5 mph93%30.01 "HgN/A
11:50 AM41 °FPartly sunny.5 mph93%30.01 "Hg6 mi
11:20 AM41 °FScattered clouds.5 mph93%30.01 "Hg6 mi
10:50 AM41 °FScattered clouds.5 mph93%30.01 "Hg6 mi
10:20 AM39 °FBroken clouds.5 mph100%30.01 "Hg5 mi
9:50 AM39 °FPartly sunny.3 mph100%29.98 "Hg4 mi
9:20 AM39 °FPartly sunny.3 mph100%29.98 "Hg4 mi
8:50 AM39 °FDrizzle. Partly sunny.5 mph93%29.95 "Hg4 mi
8:20 AM37 °FPartly sunny.5 mph100%29.95 "Hg4 mi
7:50 AM37 °FLight rain. Passing clouds.5 mph100%29.95 "Hg4 mi
7:20 AM37 °FRain. Passing clouds.3 mph100%29.92 "Hg4 mi
6:50 AM37 °FLight rain. Passing clouds.6 mph100%29.92 "Hg4 mi
6:20 AM37 °FRain. Passing clouds.3 mph100%29.89 "Hg4 mi
5:50 AM37 °FLight rain. Passing clouds.3 mph100%29.89 "Hg5 mi
5:20 AM37 °FPassing clouds.3 mph100%29.89 "Hg4 mi
4:50 AM37 °FPassing clouds.3 mph100%29.86 "Hg5 mi
2:20 AM39 °FPassing clouds.2 mph93%29.83 "HgN/A
11:50 PM
Wed, Nov 25
39 °FPassing clouds.5 mph93%29.80 "HgN/A
11:20 PM39 °FPassing clouds.5 mph93%29.80 "HgN/A
10:50 PM39 °FPartly cloudy.5 mph100%29.80 "HgN/A
10:20 PM39 °FPartly cloudy.6 mph93%29.80 "HgN/A
9:50 PM39 °FScattered showers. Partly cloudy.6 mph100%29.77 "Hg5 mi
9:20 PM39 °FPartly cloudy.8 mph93%29.77 "Hg5 mi
8:50 PM41 °FScattered showers. Partly cloudy.7 mph93%29.77 "Hg5 mi
8:20 PM41 °FLight rain. Passing clouds.8 mph93%29.77 "HgN/A
7:50 PM41 °FPassing clouds.9 mph93%29.77 "HgN/A
7:20 PM41 °FLight rain. Passing clouds.8 mph93%29.77 "Hg6 mi
6:50 PM41 °FLight rain. Partly cloudy.9 mph93%29.74 "Hg6 mi
6:20 PM41 °FLight rain. Passing clouds.8 mph93%29.74 "Hg6 mi
Weather by CustomWeather, © 2015

See weather overviewHow to use our weather pages